Location: Aurora Center
(43.5271°N, 98.5894°W)
Time: 21:54:38
(UTC-05:00)

A-11 Canister half - Pass Details

Date: 22 July 2024
Orbit: 1524 x 1683 km, 47.3° (Epoch: 17 April)

Event Time Altitude Azimuth Distance (km) Brightness Sun altitude
Rises 03:31:49 0° 178° (S) 4,921 - -21.4°
Exits shadow 03:36:31 10° 160° (SSE) 3,931 10.8 -21.0°
Reaches altitude 10° 03:36:32 10° 160° (SSE) 3,929 10.8 -21.0°
Maximum altitude 03:42:17 17° 124° (SE) 3,382 10.7 -20.5°
Drops below altitude 10° 03:47:58 10° 89° (E) 3,892 11.5 -20.0°
Sets 03:52:33 0° 71° (ENE) 4,856 12.5 -19.5°
